Terminal Aerodrome Forecast
Issued by NWS

Home | Current Version | Previous Version | Text Only | Print | Product List | Glossary On
Versions: 1 2 3 4 5 6 7 8 9 10 11 12 13 14 15 16 17 18
000
FTUS41 KPBZ 281100
TAFBVI
TAF
KBVI 281125Z 2812/2912 31010KT P6SM SCT015
      TEMPO 2812/2813 BKN015
     FM281300 27004KT P6SM SKC
     FM290400 VRB03KT P6SM BKN100=

USA.gov is the U.S. government's official web portal to all federal, state and local government web resources and services.